Temp
20 18 18 19 26 29 27 27 28 27 26 25 24 25 24 22 23 22 18 18 17 16 15 16 16 16 16 16 16 16 17 17 17 17 17 18 18 18 18 18 18 18 18 18 17 17 18 18 18
19 18 19 22 28 29 28 28 27 27 26 24 24 24 24 22 20 18 18 17 17 17 16 16 15 16 16 15 16 16 16 17 18 17 17 18 18 17 17 18 18 18 17 17 17 18 18 18 18
19 19 23 26 28 28 27 28 27 26 25 25 24 23 23 21 19 19 18 17 18 17 16 16 15 15 15 15 16 16 16 16 17 17 17 17 17 17 18 18 18 17 17 17 18 18 18 18 18
19 20 23 28 28 27 28 28 26 26 24 24 24 23 20 19 20 19 18 18 18 18 16 16 16 15 15 15 16 15 17 17 17 17 17 17 17 17 18 18 17 17 17 17 18 18 18 18 18
19 21 27 28 27 27 28 27 26 27 25 24 24 23 21 19 18 18 18 19 19 18 16 16 16 16 16 16 16 16 16 16 16 17 17 17 17 18 18 18 18 18 18 18 18 18 18 18 18
23 21 27 28 27 27 27 25 26 25 24 23 24 22 19 19 19 19 19 19 19 19 18 16 16 16 16 17 16 16 17 16 16 16 17 17 18 18 18 18 18 18 18 18 18 18 18 18 18
23 21 27 28 27 26 26 25 26 25 24 24 24 24 19 19 19 18 19 19 19 18 17 16 16 16 16 16 16 16 16 16 16 17 17 17 17 17 18 18 18 18 19 19 19 19 19 19 19
23 21 27 28 27 26 26 25 24 25 24 22 23 23 21 19 19 19 19 19 19 18 18 16 17 17 17 16 16 16 16 16 17 17 17 17 18 18 18 18 19 19 19 19 19 19 19 19 19
23 24 24 27 27 25 25 25 23 23 23 23 23 23 21 19 19 19 19 19 18 18 18 18 17 17 17 17 16 16 17 17 17 17 17 17 18 18 17 19 20 19 20 19 20 20 20 20 20
25 23 25 25 26 26 25 25 24 24 24 22 23 22 20 19 19 20 19 19 19 18 18 19 19 18 17 17 16 17 16 16 17 17 17 17 17 18 18 19 19 20 20 20 20 20 20 20 20
24 20 22 23 23 25 26 25 25 25 26 24 23 21 20 19 19 20 20 19 19 19 18 17 17 17 18 17 17 17 17 17 18 18 17 18 18 18 19 19 19 19 19 20 20 20 20 20 21
22 19 19 22 22 23 26 25 25 25 25 24 22 21 21 20 21 21 20 20 18 18 18 17 17 16 17 17 18 17 18 18 18 18 18 18 19 18 19 19 19 19 20 20 20 20 20 20 20
21 19 18 18 20 22 22 24 25 24 24 23 22 21 21 21 21 21 21 20 19 18 18 17 16 16 16 17 17 17 18 18 18 18 19 19 19 18 19 19 20 20 20 20 20 20 20 20 21
21 22 20 21 19 20 23 21 23 23 23 22 22 21 21 21 21 20 20 20 19 19 18 17 17 16 16 17 17 17 18 18 18 18 19 19 18 18 19 19 20 20 20 20 20 20 21 21 21
23 23 23 22 19 18 20 21 22 23 23 23 23 22 22 21 21 20 20 20 19 19 18 18 17 17 16 17 17 18 18 18 18 18 19 19 19 19 19 19 20 20 20 20 21 21 21 21 21
24 24 22 21 21 16 18 19 20 21 23 24 23 23 22 21 21 20 20 20 19 19 18 18 18 17 18 17 17 18 18 18 18 18 18 19 19 20 19 20 20 20 20 20 21 21 21 21 22
26 23 23 20 17 17 17 17 19 18 19 23 24 23 22 22 21 20 20 20 19 19 18 18 18 17 17 18 17 17 18 18 18 18 18 19 19 19 19 19 20 20 20 20 21 21 21 22 22
26 26 24 23 20 16 17 18 19 17 17 22 24 24 23 23 22 21 20 20 20 19 18 18 18 17 17 17 18 18 18 18 18 18 18 19 19 20 19 19 20 20 21 21 20 21 21 21 21
27 27 25 23 21 21 18 17 18 16 16 19 23 24 24 23 23 22 21 20 20 19 18 17 17 17 17 17 18 18 18 18 18 18 19 19 19 20 20 19 20 20 20 20 21 21 22 21 21
27 27 26 22 21 22 21 20 18 17 17 18 21 24 24 23 23 22 21 20 20 19 18 18 17 17 17 18 18 19 18 18 19 18 18 19 19 19 19 20 20 20 20 21 20 21 21 21 21
28 28 26 25 22 22 22 22 20 18 17 17 19 22 23 22 23 22 21 21 20 19 19 18 17 17 17 18 17 18 18 18 18 18 18 18 19 19 19 20 19 20 20 20 20 21 21 21 20
28 27 26 24 24 22 22 22 22 20 18 18 18 20 23 23 23 23 22 21 21 20 19 18 17 18 18 18 18 18 19 20 20 19 19 19 18 18 18 19 20 20 20 20 20 20 20 21 21
28 27 27 25 26 25 23 21 22 22 18 20 19 20 22 24 24 24 23 22 21 20 20 19 17 17 17 18 18 18 19 19 19 19 18 18 19 18 18 18 18 18 20 20 20 20 20 19 20
27 27 27 27 27 26 26 23 22 22 23 20 20 20 22 24 24 24 23 23 22 21 20 19 18 18 18 18 18 18 19 19 20 19 19 19 19 19 19 18 19 18 19 18 19 20 20 20 19
27 28 27 27 25 26 27 24 25 25 24 24 23 21 21 24 25 24 24 22 22 21 20 20 18 18 19 18 17 17 17 18 18 18 19 20 20 20 19 19 19 19 19 19 19 19 19 19 19
27 29 27 25 26 26 26 26 25 24 25 25 23 21 22 22 24 24 23 22 21 21 20 20 19 18 19 19 18 18 18 18 18 19 20 20 20 20 19 18 18 18 18 19 18 19 19 19 19
28 27 29 27 28 27 28 27 25 26 25 25 24 21 21 22 23 24 23 23 21 21 20 20 19 18 18 18 18 18 18 18 19 19 18 19 19 19 19 19 18 18 18 18 18 19 18 18 19
27 29 27 28 24 26 27 26 23 22 22 24 26 24 23 21 21 23 23 23 23 22 21 20 19 18 18 18 18 18 17 17 18 18 18 18 18 18 18 18 18 18 18 18 18 19 19 18 19
27 27 27 25 28 25 25 24 23 21 22 23 23 25 21 21 21 23 22 22 22 21 21 20 20 19 18 18 18 18 18 18 17 18 18 18 18 18 19 19 18 18 18 18 19 19 19 18 18
28 27 28 26 25 27 26 24 21 21 20 21 24 24 24 20 19 21 20 21 20 20 20 20 19 20 19 19 18 18 18 17 18 18 18 17 18 18 18 18 18 18 18 18 18 18 19 19 18
Height
1517 1518 1519 1519 1515 1496 1511 1513 1508 1513 1517 1521 1526 1524 1529 1533 1530 1541 1551 1552 1553 1554 1555 1555 1555 1555 1556 1557 1558 1558 1560 1560 1561 1563 1564 1565 1566 1566 1566 1568 1569 1569 1571 1571 1573 1573 1572 1573 1573
1521 1519 1519 1517 1504 1503 1511 1508 1512 1515 1521 1525 1528 1529 1530 1538 1541 1546 1551 1553 1554 1556 1557 1556 1557 1557 1556 1557 1560 1561 1562 1562 1563 1566 1568 1568 1568 1569 1570 1570 1572 1572 1573 1574 1574 1575 1575 1575 1574
1518 1519 1519 1510 1502 1506 1511 1509 1514 1520 1525 1526 1530 1533 1536 1545 1547 1549 1552 1555 1558 1559 1560 1558 1560 1558 1558 1560 1560 1563 1565 1565 1565 1570 1571 1571 1571 1572 1573 1573 1574 1575 1575 1577 1577 1577 1578 1577 1576
1521 1520 1518 1506 1509 1510 1508 1512 1518 1522 1527 1530 1531 1537 1544 1548 1550 1553 1555 1558 1560 1562 1563 1562 1562 1562 1562 1562 1563 1565 1568 1569 1570 1573 1573 1574 1575 1575 1575 1576 1577 1578 1578 1579 1579 1580 1580 1580 1579
1520 1518 1508 1508 1512 1510 1512 1516 1519 1521 1526 1531 1532 1539 1545 1551 1552 1556 1558 1561 1562 1564 1565 1564 1565 1565 1566 1566 1567 1569 1570 1572 1573 1575 1575 1576 1577 1578 1578 1579 1579 1580 1581 1581 1581 1582 1582 1582 1581
1520 1518 1510 1509 1514 1515 1518 1522 1522 1525 1530 1533 1535 1540 1550 1554 1556 1558 1561 1563 1565 1566 1567 1567 1568 1569 1567 1570 1570 1573 1574 1576 1577 1576 1578 1579 1579 1580 1580 1581 1581 1582 1583 1583 1584 1584 1584 1584 1583
1519 1520 1505 1503 1515 1519 1520 1523 1523 1527 1530 1533 1537 1540 1552 1555 1558 1560 1563 1565 1567 1568 1569 1571 1571 1571 1571 1572 1574 1576 1578 1577 1577 1580 1581 1581 1583 1583 1583 1584 1584 1584 1584 1585 1586 1586 1586 1586 1585
1519 1519 1510 1506 1515 1521 1522 1526 1529 1530 1534 1537 1540 1542 1549 1554 1558 1562 1565 1567 1569 1571 1572 1572 1573 1574 1574 1576 1577 1578 1578 1579 1581 1582 1583 1584 1585 1586 1586 1587 1586 1587 1587 1588 1588 1589 1588 1587 1587
1519 1519 1519 1511 1513 1522 1525 1527 1532 1534 1536 1538 1541 1543 1549 1555 1559 1563 1566 1568 1571 1573 1574 1576 1578 1577 1578 1579 1580 1582 1581 1583 1584 1586 1586 1588 1591 1592 1591 1589 1589 1589 1590 1590 1590 1590 1590 1589 1589
1515 1520 1516 1519 1516 1520 1524 1527 1532 1534 1537 1541 1542 1547 1552 1557 1560 1563 1566 1569 1571 1574 1575 1578 1580 1582 1581 1582 1583 1585 1585 1587 1587 1589 1589 1592 1591 1592 1593 1591 1591 1592 1592 1593 1593 1593 1592 1591 1595
1518 1526 1525 1524 1525 1523 1524 1528 1531 1532 1533 1539 1543 1547 1553 1558 1562 1564 1567 1570 1572 1574 1576 1578 1579 1581 1585 1586 1587 1590 1590 1589 1589 1590 1591 1592 1594 1594 1596 1595 1596 1596 1595 1597 1597 1596 1597 1596 1597
1523 1530 1529 1529 1529 1528 1526 1530 1531 1533 1535 1539 1546 1550 1553 1558 1562 1565 1568 1571 1573 1574 1577 1578 1579 1581 1584 1586 1588 1589 1590 1591 1592 1592 1592 1593 1596 1595 1596 1597 1598 1598 1598 1598 1598 1599 1597 1599 1598
1525 1531 1532 1533 1532 1532 1534 1534 1533 1537 1538 1543 1548 1553 1556 1559 1562 1565 1568 1571 1573 1575 1576 1577 1579 1581 1582 1586 1588 1589 1590 1592 1592 1593 1593 1594 1596 1596 1598 1597 1600 1600 1601 1600 1600 1600 1600 1601 1602
1524 1528 1534 1534 1536 1535 1536 1538 1537 1540 1541 1546 1550 1554 1557 1559 1562 1566 1569 1571 1573 1576 1577 1578 1580 1581 1583 1586 1587 1589 1590 1591 1593 1594 1595 1595 1597 1597 1599 1600 1601 1602 1602 1602 1603 1602 1603 1603 1603
1522 1526 1530 1535 1537 1540 1540 1540 1539 1542 1543 1546 1550 1553 1557 1560 1562 1565 1569 1571 1573 1576 1578 1579 1581 1582 1584 1586 1588 1590 1591 1593 1594 1595 1596 1597 1597 1597 1599 1601 1603 1603 1603 1603 1603 1603 1603 1604 1605
1521 1522 1531 1537 1536 1544 1543 1545 1544 1544 1543 1545 1549 1553 1557 1560 1562 1565 1568 1571 1573 1576 1577 1580 1583 1584 1585 1587 1589 1592 1593 1594 1595 1596 1598 1598 1598 1599 1600 1603 1604 1603 1605 1605 1605 1605 1605 1605 1605
1513 1527 1527 1539 1543 1543 1545 1546 1547 1545 1547 1545 1548 1551 1555 1559 1562 1565 1568 1570 1573 1575 1577 1580 1583 1585 1587 1588 1591 1592 1593 1595 1595 1596 1597 1598 1599 1600 1602 1603 1603 1604 1606 1606 1606 1605 1605 1606 1606
1512 1514 1522 1528 1540 1545 1545 1546 1544 1541 1546 1546 1546 1549 1553 1557 1560 1563 1567 1570 1572 1574 1577 1579 1582 1584 1585 1588 1589 1593 1594 1594 1595 1596 1597 1598 1600 1601 1603 1604 1605 1607 1608 1607 1606 1605 1605 1606 1604
1506 1509 1517 1525 1534 1535 1543 1543 1545 1545 1546 1547 1545 1546 1550 1554 1558 1562 1566 1569 1571 1574 1576 1578 1581 1583 1585 1588 1591 1593 1594 1595 1596 1597 1597 1599 1600 1602 1603 1606 1606 1607 1608 1607 1606 1607 1606 1606 1604
1507 1510 1515 1527 1531 1530 1534 1540 1541 1543 1542 1545 1546 1543 1546 1552 1556 1561 1564 1567 1570 1573 1575 1578 1580 1582 1585 1589 1591 1593 1594 1595 1598 1598 1598 1600 1601 1602 1604 1604 1605 1606 1608 1607 1607 1607 1608 1607 1604
1507 1505 1513 1519 1528 1530 1531 1531 1537 1539 1539 1542 1545 1544 1546 1552 1553 1559 1562 1565 1569 1571 1574 1576 1579 1581 1584 1588 1590 1591 1593 1595 1597 1598 1600 1601 1601 1602 1603 1604 1605 1605 1607 1608 1607 1607 1606 1608 1606
1506 1508 1511 1519 1523 1533 1527 1536 1527 1529 1532 1536 1540 1544 1543 1546 1550 1554 1559 1563 1567 1570 1573 1575 1577 1580 1583 1586 1590 1593 1594 1595 1597 1599 1600 1602 1601 1602 1604 1604 1605 1605 1608 1607 1608 1607 1606 1606 1607
1502 1506 1507 1514 1513 1518 1523 1538 1520 1521 1532 1527 1535 1539 1541 1542 1546 1550 1554 1560 1564 1568 1571 1573 1576 1578 1582 1584 1587 1590 1592 1594 1597 1599 1600 1600 1601 1602 1603 1604 1604 1605 1608 1607 1607 1607 1607 1608 1608
1506 1507 1507 1505 1503 1513 1506 1524 1521 1520 1512 1525 1530 1534 1537 1538 1541 1546 1552 1557 1562 1566 1569 1572 1573 1576 1579 1582 1585 1588 1591 1593 1596 1597 1599 1600 1601 1602 1601 1603 1603 1604 1606 1606 1607 1607 1607 1607 1607
1505 1501 1508 1511 1518 1512 1501 1518 1506 1506 1510 1510 1516 1523 1532 1536 1538 1543 1548 1554 1559 1563 1567 1570 1572 1574 1576 1579 1583 1586 1589 1592 1594 1595 1597 1598 1600 1601 1601 1601 1602 1604 1604 1605 1605 1605 1606 1607 1607
1502 1492 1501 1523 1511 1513 1500 1510 1505 1505 1502 1504 1512 1519 1528 1533 1536 1540 1546 1551 1554 1560 1564 1567 1569 1572 1574 1577 1581 1584 1587 1590 1592 1593 1595 1597 1598 1599 1599 1600 1601 1602 1602 1603 1603 1605 1606 1607 1607
1495 1505 1486 1499 1489 1501 1486 1496 1502 1501 1503 1505 1509 1514 1523 1529 1533 1538 1543 1547 1551 1557 1560 1564 1567 1570 1573 1575 1578 1581 1584 1586 1590 1591 1592 1595 1596 1597 1596 1597 1598 1600 1601 1601 1602 1604 1604 1604 1605
1495 1489 1504 1496 1520 1513 1493 1499 1513 1509 1509 1507 1505 1512 1519 1526 1531 1536 1540 1545 1549 1554 1559 1562 1564 1567 1570 1573 1576 1579 1581 1583 1585 1587 1588 1592 1593 1593 1594 1595 1596 1598 1599 1600 1600 1602 1602 1602 1603
1499 1499 1496 1501 1487 1507 1508 1509 1509 1516 1511 1508 1508 1509 1518 1522 1527 1533 1537 1542 1547 1551 1556 1559 1562 1565 1568 1571 1574 1576 1579 1581 1582 1584 1586 1587 1589 1590 1591 1593 1594 1595 1596 1597 1598 1599 1600 1600 1601
1485 1490 1487 1500 1507 1493 1499 1511 1516 1516 1517 1514 1507 1509 1516 1524 1527 1531 1534 1539 1542 1546 1551 1556 1559 1562 1565 1569 1570 1573 1575 1577 1579 1581 1583 1585 1586 1586 1588 1589 1590 1592 1594 1594 1595 1596 1598 1599 1598
Wind_Speed
1 1 1 2 5 3 7 6 3 9 7 6 6 5 14 11 8 7 12 12 14 14 11 9 7 8 8 10 10 13 17 23 24 20 18 15 17 17 17 17 17 17 18 19 18 18 18 16 16
3 1 1 3 5 6 8 5 7 8 11 12 11 6 9 14 15 18 14 13 14 14 11 13 12 8 8 10 12 16 18 21 22 18 16 15 15 16 16 17 17 19 18 17 18 18 16 15 14
1 2 4 3 2 7 9 6 7 11 12 6 5 10 7 9 9 10 16 16 15 15 15 19 17 14 14 15 19 24 25 26 23 17 15 14 14 14 15 17 16 17 18 18 18 17 17 17 15
3 1 3 5 8 7 10 9 12 13 9 4 10 12 11 10 9 15 18 19 18 18 17 19 18 21 22 23 26 24 27 25 22 14 14 14 13 14 15 16 16 16 16 15 16 16 16 17 17
1 3 3 6 7 11 10 9 10 8 6 8 6 10 13 11 18 19 20 19 20 18 17 18 23 19 22 23 22 21 21 21 20 16 12 12 11 12 14 15 14 15 15 14 15 17 17 17 16
3 3 6 6 10 9 8 6 6 7 9 9 17 19 10 15 18 18 19 19 17 16 14 13 14 23 26 24 27 22 19 18 15 11 12 12 11 12 13 14 14 15 14 15 16 16 16 16 16
3 2 4 9 12 9 9 5 6 7 9 10 14 15 14 18 17 17 17 17 15 13 14 13 15 16 12 19 18 19 18 15 13 12 13 13 12 13 14 14 15 14 14 14 14 13 14 15 16
2 1 7 6 11 10 9 8 10 8 9 10 13 8 20 21 19 17 16 15 14 13 12 13 16 16 12 13 17 15 13 13 13 14 14 14 14 16 16 13 13 13 13 13 12 12 13 14 14
2 4 4 8 10 9 12 12 7 9 15 7 4 18 23 23 20 18 17 15 15 14 14 13 13 15 12 11 12 14 14 12 15 15 16 16 11 12 12 14 14 13 13 11 11 12 12 13 12
3 2 2 3 6 10 11 9 10 11 11 9 16 19 24 22 20 18 17 15 14 13 12 14 13 13 12 10 10 11 12 12 15 15 14 11 13 13 13 15 15 14 12 11 10 11 11 13 5
3 3 6 7 8 4 12 9 7 10 5 13 21 26 24 21 18 17 15 15 13 13 11 12 12 13 12 12 9 10 10 10 14 15 10 11 10 10 10 9 9 8 9 7 8 7 6 6 8
9 7 5 5 5 5 8 5 11 7 6 16 19 22 23 20 18 16 15 15 14 12 11 11 10 11 12 10 9 10 10 11 10 10 12 10 8 10 10 8 9 9 8 9 9 7 10 9 10
14 7 7 5 8 8 4 4 7 8 15 18 19 18 20 18 16 14 14 13 13 12 10 9 9 9 10 12 11 10 10 10 9 8 10 10 8 8 8 8 8 8 8 7 7 7 9 8 7
12 11 12 6 2 6 3 3 7 8 18 19 18 16 16 16 15 14 14 14 13 12 11 9 9 9 10 10 11 9 10 9 8 6 8 8 7 8 6 6 6 6 5 4 4 5 6 5 5
19 13 13 9 8 1 8 5 6 9 17 18 16 14 14 15 14 14 13 14 13 12 12 11 10 9 11 10 10 9 9 8 7 6 6 6 8 7 8 5 6 4 4 5 3 3 4 2 4
7 6 6 6 4 7 5 1 3 2 12 16 16 15 14 13 13 13 12 13 13 12 12 12 11 10 12 8 10 9 8 6 6 6 5 6 7 7 7 6 5 5 6 6 4 3 2 0 3
7 4 7 5 6 5 2 3 5 4 6 15 17 16 15 14 13 12 13 13 13 12 12 13 12 12 10 11 11 8 8 4 5 7 6 6 6 7 7 6 6 7 6 7 6 3 3 2 4
2 6 3 6 8 2 5 6 6 4 10 14 18 17 16 15 14 14 14 14 13 12 11 13 12 11 11 10 11 8 5 4 6 4 6 7 6 7 7 5 5 6 5 5 6 6 4 3 5
3 5 6 7 7 4 4 1 2 9 11 17 17 20 19 16 15 14 14 13 14 14 14 13 13 13 10 9 10 8 6 6 5 4 10 5 6 5 6 4 4 5 4 3 6 5 5 5 7
4 4 7 6 4 4 6 8 8 9 8 18 18 19 19 16 16 15 16 15 14 15 16 15 14 13 13 11 11 9 8 7 6 6 7 4 6 6 3 4 3 4 3 4 3 3 3 4 7
7 6 3 3 8 4 4 5 9 12 14 18 16 17 18 19 19 18 17 17 16 15 17 17 15 14 14 13 11 12 10 8 7 7 5 4 6 5 4 2 2 3 5 3 4 4 3 3 6
9 3 4 5 7 3 7 1 10 7 12 20 23 20 20 22 20 20 20 19 18 16 15 16 17 17 17 18 13 12 9 8 9 8 6 4 5 5 3 2 1 0 2 4 5 5 3 4 5
2 4 2 7 7 3 8 3 2 9 8 18 24 27 23 25 22 21 20 19 19 18 16 15 17 19 16 18 15 11 12 11 10 9 7 6 6 5 4 5 3 1 1 4 3 4 4 5 6
8 9 7 7 7 8 5 7 6 10 16 14 26 28 27 26 25 23 20 19 19 18 18 17 17 18 20 20 17 14 14 11 12 10 9 7 5 5 5 5 6 5 3 3 2 4 5 4 5
16 14 9 8 5 7 5 6 3 6 11 24 28 33 28 26 25 22 22 21 21 21 20 18 18 17 17 20 16 15 13 12 14 10 10 10 7 6 8 6 7 4 5 4 4 5 5 5 4
18 17 10 7 6 3 5 4 3 4 5 17 27 25 27 23 24 23 23 24 26 22 21 20 19 18 17 18 18 17 15 11 12 11 10 10 9 8 9 7 7 7 6 6 5 4 4 5 4
17 13 9 12 6 7 5 5 6 1 6 3 18 23 25 25 21 23 23 24 23 23 22 22 20 19 19 18 18 19 16 15 14 12 13 10 10 8 10 10 8 8 8 9 8 5 6 6 5
14 10 8 8 4 8 6 1 4 6 7 4 9 23 24 27 26 20 22 23 24 23 22 21 21 20 19 19 18 16 15 15 15 16 16 12 11 11 11 11 11 11 10 9 9 6 7 6 5
9 11 11 2 8 3 2 4 7 7 9 7 4 14 20 25 24 21 20 22 23 21 21 21 20 19 19 18 18 17 15 15 15 15 15 16 14 14 15 13 12 11 11 11 11 10 9 8 7
11 11 15 6 2 2 4 6 7 5 8 9 2 14 19 12 19 22 19 20 22 24 23 22 20 19 18 17 18 17 16 16 16 16 16 14 15 16 15 13 13 12 12 11 12 12 9 10 8
Wind_Direction
116 26 233 257 229 220 113 96 71 125 122 71 92 18 73 30 9 68 123 115 113 115 110 116 127 129 131 104 116 124 118 111 103 102 99 108 109 106 108 113 109 105 103 101 94 92 88 87 86
190 239 301 260 245 151 101 108 128 119 99 111 92 109 50 71 81 111 118 120 118 108 108 105 102 115 129 139 126 127 118 111 109 108 114 115 110 106 108 114 109 106 97 95 93 89 84 84 88
199 201 270 286 293 63 98 110 119 123 126 123 101 62 45 91 91 105 126 121 114 108 110 104 88 100 121 123 124 125 115 109 110 116 113 113 112 111 110 114 109 104 100 98 90 87 79 79 82
275 327 229 249 98 79 95 113 125 134 112 93 109 85 87 91 97 126 121 121 116 109 114 106 90 97 105 119 110 117 116 111 113 112 106 108 108 108 112 114 106 105 99 97 93 85 82 82 80
340 258 201 135 95 99 95 112 146 139 108 124 119 108 98 96 117 119 121 121 117 117 115 113 90 101 103 112 114 107 104 100 104 108 114 109 104 106 110 115 111 105 104 100 95 89 83 79 77
239 284 191 153 117 115 101 109 121 105 120 113 121 115 94 125 123 124 125 124 121 122 125 122 108 92 101 94 101 103 106 116 116 116 113 105 107 103 109 114 114 112 107 102 97 88 79 78 73
269 303 194 139 131 127 124 114 96 116 133 119 138 117 128 139 136 131 128 127 125 122 121 126 120 114 100 92 106 103 103 99 112 117 113 108 103 104 106 110 115 111 108 105 97 85 77 70 65
235 120 185 142 157 121 128 94 107 103 89 134 136 146 152 150 139 138 132 129 129 128 126 122 130 124 116 106 98 107 114 119 116 114 107 101 99 92 92 87 112 110 111 104 92 79 71 68 61
198 202 203 155 159 135 136 121 89 113 124 128 120 141 147 149 144 142 138 138 133 131 125 125 123 133 131 105 114 113 114 115 109 105 107 90 97 91 87 100 104 108 104 95 84 75 68 80 69
262 134 102 8 80 141 154 135 119 138 122 123 130 130 146 149 150 150 147 144 140 135 129 130 130 135 132 140 127 117 115 118 116 114 103 92 98 98 91 92 95 94 92 78 67 62 67 58 76
54 86 128 89 90 159 142 135 128 152 151 147 149 146 151 155 159 159 155 150 148 142 138 136 139 133 140 143 136 121 119 114 121 110 96 96 88 93 97 88 87 82 72 83 68 63 75 90 94
104 59 43 56 55 107 144 115 140 55 77 142 148 153 153 159 163 166 162 159 157 152 148 145 138 133 137 133 127 122 123 125 124 113 99 92 88 81 90 98 89 86 88 78 84 85 94 91 90
107 107 106 85 55 78 98 140 126 81 123 137 144 155 158 162 166 168 167 164 161 160 159 154 148 137 133 120 129 130 122 130 129 110 109 105 88 83 94 96 98 96 83 80 82 87 105 87 86
133 142 133 145 115 346 329 97 146 114 138 142 150 159 162 165 168 169 171 171 171 168 170 169 156 149 137 139 128 130 130 134 130 116 119 113 94 97 91 91 85 90 81 70 89 106 116 110 78
138 158 134 137 129 82 323 188 137 144 157 154 159 162 162 167 170 172 174 176 177 175 178 175 165 161 148 138 127 136 130 141 139 133 127 118 104 102 88 96 79 84 60 58 68 123 155 102 50
150 169 164 54 175 24 341 153 256 315 173 173 169 168 166 167 171 167 170 171 173 170 175 171 165 165 155 162 142 142 142 148 152 151 132 124 110 96 74 94 90 83 70 66 92 118 140 342 12
187 154 125 125 62 104 28 155 305 253 224 195 183 178 176 171 173 170 171 168 170 164 166 170 168 168 170 170 157 154 139 128 146 148 139 135 117 117 89 105 100 81 71 63 74 87 89 34 358
117 135 133 138 160 133 181 221 315 276 222 218 195 185 185 182 178 174 172 176 178 177 173 171 168 177 169 174 167 162 148 135 137 138 150 146 141 124 98 106 110 80 76 58 69 74 57 25 2
121 90 94 106 143 170 199 256 300 168 207 230 220 195 192 191 176 177 176 179 184 186 184 182 177 184 175 176 173 176 179 161 148 152 160 152 158 148 119 98 85 81 74 83 52 48 38 8 359
213 190 100 122 156 226 166 198 176 196 205 218 219 208 194 199 182 183 183 184 186 188 191 190 190 196 189 180 173 182 178 156 176 162 172 169 165 162 108 116 85 95 47 48 31 26 359 354 349
220 266 122 349 161 172 193 182 194 186 201 217 222 220 198 204 194 190 189 188 188 189 190 193 195 198 191 185 187 183 182 182 178 176 176 184 181 178 172 156 120 57 65 4 19 4 332 343 348
210 186 216 166 204 277 207 270 220 195 195 204 221 224 219 201 206 197 192 192 193 192 189 191 193 196 195 191 191 188 192 190 182 170 180 176 182 196 199 183 173 263 36 10 355 2 351 353 355
287 191 180 185 247 262 180 250 125 204 197 206 213 222 217 208 206 203 198 194 194 192 193 191 193 199 195 201 187 208 193 203 196 186 206 187 211 191 204 220 229 322 24 297 0 11 26 16 28
151 188 206 219 251 249 119 224 172 188 225 197 219 216 219 216 204 206 199 195 194 196 193 195 195 200 207 206 209 204 206 203 204 204 213 202 208 222 235 216 243 242 250 300 302 302 333 337 3
199 206 228 218 212 263 136 204 275 216 202 203 206 212 211 209 207 205 198 200 197 197 196 197 199 202 206 211 208 206 208 213 214 223 212 211 219 227 226 225 252 253 262 262 271 292 301 321 320
212 239 260 264 233 266 151 224 109 344 276 198 217 197 202 206 210 203 201 200 200 198 199 198 202 204 206 204 206 209 214 221 215 224 214 217 233 235 228 217 222 239 254 250 263 284 272 300 312
200 241 314 263 219 258 149 133 91 89 71 165 185 179 200 205 202 205 204 203 203 202 201 202 204 206 210 210 213 221 228 215 215 220 222 239 234 235 236 238 238 234 239 251 254 271 267 267 296
275 239 218 227 238 260 138 186 84 8 357 319 168 183 203 207 213 218 211 207 204 204 205 204 206 209 213 214 217 223 224 229 228 230 230 229 230 242 234 246 249 246 252 250 249 255 276 269 275
196 234 249 26 278 287 249 101 34 9 351 332 193 180 178 200 217 219 210 204 204 202 204 208 207 209 212 216 218 221 225 228 230 230 235 243 248 248 242 247 243 245 240 248 256 246 251 260 262
253 242 216 257 326 48 339 84 5 28 3 358 17 171 160 173 229 224 222 206 198 203 197 206 206 209 211 214 217 223 228 230 230 233 238 245 253 249 248 250 250 244 246 255 250 250 250 267 266